Regional Weather Roundup
Issued by NWS Cleveland, OH

Home | Current Version | Previous Version | Text Only | Print | Product List | Glossary Off
Versions: 1 2 3 4 5 6 7 8 9 10 11 12 13 14 15 16 17 18 19 20 21 22 23 24 25 26 27 28 29 30 31 32 33 34 35 36 37 38 39 40 41 42 43 44 45 46 47 48 49 50

000
ASUS41 KCLE 041702
RWRCLE
OHIO REGIONAL WEATHER ROUNDUP
NATIONAL WEATHER SERVICE CLEVELAND, OH
100 PM EDT FRI SEP 04 2015

NOTE: "FAIR" INDICATES FEW OR NO CLOUDS BELOW 12,000 FEET WITH NO
SIGNIFICANT WEATHER AND/OR OBSTRUCTIONS TO VISIBILITY.

OHZ001>008-015>018-024>027-034-035-043-044-041800-
   NORTHWEST OHIO

CITY           SKY/WX    TMP DP  RH WIND       PRES   REMARKS
DEFIANCE       MOSUNNY   84  70  62 CALM      30.02S
FINDLAY        MOSUNNY   86  71  60 S10       30.02F HX  91
TOLEDO EXPRESS PTSUNNY   83  71  67 SW3       30.01F
TOLEDO EXEC    MOSUNNY   84  70  62 SW6       30.02F
LIMA           PTSUNNY   84  70  62 S6        30.04F
$$

OHZ009>014-019>023-028>033-038-089-041800-
   NORTHEAST OHIO

CITY           SKY/WX    TMP DP  RH WIND       PRES   REMARKS
CLE-HOPKINS    MOSUNNY   81  66  60 S8        30.07S
CLE-LAKEFRONT  MOSUNNY   82  69  64 N7        30.04F
CUY CO. ARPT   PTSUNNY   81  72  74 SE9       30.07F
LORAIN-ELYRIA  PTSUNNY   78  66  66 S14G23    30.05F
ASHTABULA      PTSUNNY   76  67  73 S8        30.09S
AKRON-CANTON   PTSUNNY   75  64  68 SE5       30.08S
WOOSTER        CLOUDY    70  66  87 SW6       30.09S
MANSFIELD      PTSUNNY   78  65  63 S14       30.08F
YOUNGSTOWN     PTSUNNY   74  65  73 S5        30.10S
$$

OHZ042-051>053-060>062-070>072-077>081-041800-
  SOUTHWEST OHIO

CITY           SKY/WX    TMP DP  RH WIND       PRES   REMARKS
CINC-COVINGTON MOSUNNY   88  66  48 W3        30.07S HX  90
CINC-LUNKEN    MOSUNNY   88  68  51 S7        30.05F HX  91
HAMILTON       SUNNY     91  67  44 SW6       30.06S HX  94
DAYTON         PTSUNNY   85  69  58 W8        30.06F
WRIGHT-PAT AFB NOT AVBL
DAYTON GENERAL SUNNY     86  66  51 SW8       30.06S
WILMINGTON     SUNNY     86  69  56 SW7       30.07F HX  90
$$

OHZ036-037-039>041-045>050-054>059-063>069-073>076-082>088-041800-
  CENTRAL AND SOUTHEAST OHIO

CITY           SKY/WX    TMP DP  RH WIND       PRES   REMARKS
COLUMBUS       PTSUNNY   77  68  73 SE5       30.07S
OSU AIRPORT    MOSUNNY   84  69  60 S9        30.07S
BOLTON FIELD   SUNNY     82  72  69 S6        30.08S
RICKENBACK AFB MOSUNNY   83  68  61 S7        30.07S
NEWARK         CLOUDY    81  67  62 SE10      30.09S
MARION         MOSUNNY   81  68  64 S12       30.07S
LANCASTER      MOSUNNY   80  67  64 S7        30.09S
ZANESVILLE     CLOUDY    74  69  85 SW3       30.10S
NEW PHILLY     LGT RAIN  70  68  93 SE5       30.09F
$$



USA.gov is the U.S. government's official web portal to all federal, state and local government web resources and services.